Regional Weather Roundup
Issued by NWS

Home | Current Version | Previous Version | Graphics & Text | Print | Product List | Glossary On
Versions: 1 2 3 4 5 6 7 8 9 10 11 12 13 14 15 16 17 18 19 20 21 22 23 24 25 26 27 28 29 30 31 32 33 34 35 36 37 38 39 40 41 42 43 44 45 46 47 48 49 50
558
ASUS43 KTOP 261508
RWRKS

WEATHER ROUNDUP FOR KANSAS
NATIONAL WEATHER SERVICE GOODLAND KS
1000 AM CDT TUE JUL 26 2016

NOTE:  "FAIR" INDICATES FEW OR NO CLOUDS BELOW 12,000 FEET WITH NO
SIGNIFICANT WEATHER AND/OR OBSTRUCTIONS TO VISIBILITY.

KSZ001>006-013>018-027>032-041>047-261600-
NORTHWEST KANSAS

CITY           SKY/WX    TMP DP  RH WIND       PRES   REMARKS
GOODLAND       CLOUDY    72  66  81 S16       30.13F
HAYS           CLOUDY    72  63  73 SW6       30.11S
HILL CITY      PTSUNNY   75  69  81 S7        30.12S
RUSSELL        PTSUNNY   75  70  84 CALM      30.08F
$$

KSZ061>065-074>080-084>089-261600-
SOUTHWEST KANSAS

CITY           SKY/WX    TMP DP  RH WIND       PRES   REMARKS
DODGE CITY     CLOUDY    70  69  97 CALM      30.12S FOG
ELKHART          N/A     71  67  87 SE5         N/A
GARDEN CITY    PTSUNNY   73  69  87 S6        30.12F
GREAT BEND     CLOUDY    73  64  73 S6        30.09S
LIBERAL        PTSUNNY   75  70  83 E6        30.13F
PRATT          CLOUDY    71  67  89 NE6       30.09S
$$

KSZ066>073-081>083-090>101-261600-
SOUTHEAST KANSAS

CITY           SKY/WX    TMP DP  RH WIND       PRES   REMARKS
CHANUTE        PTSUNNY   80  72  76 E8        30.04S
COFFEYVILLE    PTSUNNY   80  74  81 E6        30.03R
HUTCHINSON     PTSUNNY   79  70  74 N8        30.06F
MEDICINE LODGE   N/A     78  70  76 NE8       30.06S
NEWTON         CLOUDY    77  73  87 E5        30.08S
PARSONS          N/A    N/A N/A N/A MISG      30.05R
WICHITA INTL   MOSUNNY   80  73  79 NE8       30.05S
WICHITA JABRA  CLOUDY    77  74  90 NE8       30.06S
WINFIELD       CLOUDY    80  73  79 VRB7      30.05R
$$

KSZ007>012-019>026-033>040-048>060-102>105-261600-
NORTHEAST KANSAS

CITY           SKY/WX    TMP DP  RH WIND       PRES   REMARKS
CONCORDIA      SUNNY     76  68  76 E5        30.08F
EMPORIA        MOSUNNY   79  71  76 E12       30.06F
LAWRENCE       MOSUNNY   78  70  76 E6        30.07S
MANHATTAN      SUNNY     78  70  76 NE5       30.07S
MARYSVILLE     SUNNY     79  68  69 SE7       30.09S
OLATHE IND     MOSUNNY   81  69  67 E8        30.08S
OLATHE EXE     MOSUNNY   79  69  71 E8        30.08S
SALINA         SUNNY     81  71  71 VRB6      30.07S
TOPEKA BILLARD   N/A     80  71  74 E6        30.07S
TOPEKA FORBES  MOSUNNY   81  70  69 E8        30.07F
$$




USA.gov is the U.S. government's official web portal to all federal, state and local government web resources and services.